owner,sensor,date,latitude,longitude,relative_humidity,qcFlag 
COMPS,ioos:station:USF.COMPS:CAM:1,2014-01-01T00:00:00Z,27.7650,-82.6490,59.79,1111122 
COMPS,ioos:station:USF.COMPS:CAM:1,2014-01-01T00:06:00Z,27.7650,-82.6490,59.48,1111122 
COMPS,ioos:station:USF.COMPS:CAM:1,2014-01-01T00:12:00Z,27.7650,-82.6490,59.1,1111122 
COMPS,ioos:station:USF.COMPS:CAM:1,2014-01-01T00:18:00Z,27.7650,-82.6490,59.33,1111122 
COMPS,ioos:station:USF.COMPS:CAM:1,2014-01-01T00:24:00Z,27.7650,-82.6490,59.35,1111122 
COMPS,ioos:station:USF.COMPS:CAM:1,2014-01-01T00:30:00Z,27.7650,-82.6490,58.27,1111122 
COMPS,ioos:station:USF.COMPS:CAM:1,2014-01-01T00:36:00Z,27.7650,-82.6490,57.0,1111122 
COMPS,ioos:station:USF.COMPS:CAM:1,2014-01-01T00:42:00Z,27.7650,-82.6490,55.27,1111122 
COMPS,ioos:station:USF.COMPS:CAM:1,2014-01-01T00:48:00Z,27.7650,-82.6490,55.29,1111122 
COMPS,ioos:station:USF.COMPS:CAM:1,2014-01-01T00:54:00Z,27.7650,-82.6490,54.33,1111122 
COMPS,ioos:station:USF.COMPS:CAM:1,2014-01-01T01:00:00Z,27.7650,-82.6490,54.45,1111122 
COMPS,ioos:station:USF.COMPS:CAM:1,2014-01-01T01:06:00Z,27.7650,-82.6490,54.53,1111122 
COMPS,ioos:station:USF.COMPS:CAM:1,2014-01-01T01:12:00Z,27.7650,-82.6490,55.01,1111122 
COMPS,ioos:station:USF.COMPS:CAM:1,2014-01-01T01:18:00Z,27.7650,-82.6490,55.5,1111122 
COMPS,ioos:station:USF.COMPS:CAM:1,2014-01-01T01:24:00Z,27.7650,-82.6490,55.85,1111122 
COMPS,ioos:station:USF.COMPS:CAM:1,2014-01-01T01:30:00Z,27.7650,-82.6490,56.07,1111122 
COMPS,ioos:station:USF.COMPS:CAM:1,2014-01-01T01:36:00Z,27.7650,-82.6490,56.07,1111122 
COMPS,ioos:station:USF.COMPS:CAM:1,2014-01-01T01:42:00Z,27.7650,-82.6490,56.47,1111122 
COMPS,ioos:station:USF.COMPS:CAM:1,2014-01-01T01:48:00Z,27.7650,-82.6490,56.62,1111122 
COMPS,ioos:station:USF.COMPS:CAM:1,2014-01-01T01:54:00Z,27.7650,-82.6490,56.12,1111122 
COMPS,ioos:station:USF.COMPS:CAM:1,2014-01-01T02:00:00Z,27.7650,-82.6490,56.38,1111122 
COMPS,ioos:station:USF.COMPS:CAM:1,2014-01-01T02:06:00Z,27.7650,-82.6490,56.88,1111122 
COMPS,ioos:station:USF.COMPS:CAM:1,2014-01-01T02:12:00Z,27.7650,-82.6490,56.96,1111122 
COMPS,ioos:station:USF.COMPS:CAM:1,2014-01-01T02:18:00Z,27.7650,-82.6490,57.11,1111122 
COMPS,ioos:station:USF.COMPS:CAM:1,2014-01-01T02:24:00Z,27.7650,-82.6490,57.27,1111122 
COMPS,ioos:station:USF.COMPS:CAM:1,2014-01-01T02:30:00Z,27.7650,-82.6490,57.64,1111122 
COMPS,ioos:station:USF.COMPS:CAM:1,2014-01-01T02:36:00Z,27.7650,-82.6490,57.61,1111122 
COMPS,ioos:station:USF.COMPS:CAM:1,2014-01-01T02:42:00Z,27.7650,-82.6490,57.34,1111122 
COMPS,ioos:station:USF.COMPS:CAM:1,2014-01-01T02:48:00Z,27.7650,-82.6490,57.77,1111122 
COMPS,ioos:station:USF.COMPS:CAM:1,2014-01-01T02:54:00Z,27.7650,-82.6490,58.47,1111122 
COMPS,ioos:station:USF.COMPS:CAM:1,2014-01-01T03:00:00Z,27.7650,-82.6490,59.6,1111122 
COMPS,ioos:station:USF.COMPS:CAM:1,2014-01-01T03:06:00Z,27.7650,-82.6490,60.63,1111122 
COMPS,ioos:station:USF.COMPS:CAM:1,2014-01-01T03:12:00Z,27.7650,-82.6490,61.4,1111122 
COMPS,ioos:station:USF.COMPS:CAM:1,2014-01-01T03:18:00Z,27.7650,-82.6490,62.18,1111122 
COMPS,ioos:station:USF.COMPS:CAM:1,2014-01-01T03:24:00Z,27.7650,-82.6490,62.41,1111122 
COMPS,ioos:station:USF.COMPS:CAM:1,2014-01-01T03:30:00Z,27.7650,-82.6490,62.93,1111122 
COMPS,ioos:station:USF.COMPS:CAM:1,2014-01-01T03:36:00Z,27.7650,-82.6490,63.68,1111122 
COMPS,ioos:station:USF.COMPS:CAM:1,2014-01-01T03:42:00Z,27.7650,-82.6490,64.07,1111122 
COMPS,ioos:station:USF.COMPS:CAM:1,2014-01-01T03:48:00Z,27.7650,-82.6490,64.58,1111122 
COMPS,ioos:station:USF.COMPS:CAM:1,2014-01-01T03:54:00Z,27.7650,-82.6490,65.04,1111122 
COMPS,ioos:station:USF.COMPS:CAM:1,2014-01-01T04:00:00Z,27.7650,-82.6490,64.94,1111122 
COMPS,ioos:station:USF.COMPS:CAM:1,2014-01-01T04:06:00Z,27.7650,-82.6490,65.24,1111122 
COMPS,ioos:station:USF.COMPS:CAM:1,2014-01-01T04:12:00Z,27.7650,-82.6490,65.3,1111122 
COMPS,ioos:station:USF.COMPS:CAM:1,2014-01-01T04:18:00Z,27.7650,-82.6490,64.93,1111122 
COMPS,ioos:station:USF.COMPS:CAM:1,2014-01-01T04:24:00Z,27.7650,-82.6490,65.43,1111122 
COMPS,ioos:station:USF.COMPS:CAM:1,2014-01-01T04:30:00Z,27.7650,-82.6490,65.49,1111122 
COMPS,ioos:station:USF.COMPS:CAM:1,2014-01-01T04:36:00Z,27.7650,-82.6490,65.72,1111122 
COMPS,ioos:station:USF.COMPS:CAM:1,2014-01-01T04:42:00Z,27.7650,-82.6490,65.69,1111122 
COMPS,ioos:station:USF.COMPS:CAM:1,2014-01-01T04:48:00Z,27.7650,-82.6490,65.79,1111122 
COMPS,ioos:station:USF.COMPS:CAM:1,2014-01-01T04:54:00Z,27.7650,-82.6490,66.21,1111122 
COMPS,ioos:station:USF.COMPS:CAM:1,2014-01-01T05:00:00Z,27.7650,-82.6490,66.36,1111122 
COMPS,ioos:station:USF.COMPS:CAM:1,2014-01-01T05:06:00Z,27.7650,-82.6490,66.63,1111122 
COMPS,ioos:station:USF.COMPS:CAM:1,2014-01-01T05:12:00Z,27.7650,-82.6490,66.99,1111122 
COMPS,ioos:station:USF.COMPS:CAM:1,2014-01-01T05:18:00Z,27.7650,-82.6490,67.08,1111122 
COMPS,ioos:station:USF.COMPS:CAM:1,2014-01-01T05:24:00Z,27.7650,-82.6490,66.33,1111122 
COMPS,ioos:station:USF.COMPS:CAM:1,2014-01-01T05:30:00Z,27.7650,-82.6490,65.57,1111122 
COMPS,ioos:station:USF.COMPS:CAM:1,2014-01-01T05:36:00Z,27.7650,-82.6490,63.8,1111122 
COMPS,ioos:station:USF.COMPS:CAM:1,2014-01-01T05:42:00Z,27.7650,-82.6490,62.5,1111122 
COMPS,ioos:station:USF.COMPS:CAM:1,2014-01-01T05:48:00Z,27.7650,-82.6490,60.65,1111122 
COMPS,ioos:station:USF.COMPS:CAM:1,2014-01-01T05:54:00Z,27.7650,-82.6490,61.88,1111122 
COMPS,ioos:station:USF.COMPS:CAM:1,2014-01-01T06:00:00Z,27.7650,-82.6490,63.05,1111122 
COMPS,ioos:station:USF.COMPS:CAM:1,2014-01-01T06:06:00Z,27.7650,-82.6490,64.34,1111122 
COMPS,ioos:station:USF.COMPS:CAM:1,2014-01-01T06:12:00Z,27.7650,-82.6490,65.27,1111122 
COMPS,ioos:station:USF.COMPS:CAM:1,2014-01-01T06:18:00Z,27.7650,-82.6490,67.0,1111122 
COMPS,ioos:station:USF.COMPS:CAM:1,2014-01-01T06:24:00Z,27.7650,-82.6490,67.86,1111122 
COMPS,ioos:station:USF.COMPS:CAM:1,2014-01-01T06:30:00Z,27.7650,-82.6490,67.27,1111122 
COMPS,ioos:station:USF.COMPS:CAM:1,2014-01-01T06:36:00Z,27.7650,-82.6490,67.4,1111122 
COMPS,ioos:station:USF.COMPS:CAM:1,2014-01-01T06:42:00Z,27.7650,-82.6490,68.1,1111122 
COMPS,ioos:station:USF.COMPS:CAM:1,2014-01-01T06:48:00Z,27.7650,-82.6490,68.88,1111122 
COMPS,ioos:station:USF.COMPS:CAM:1,2014-01-01T06:54:00Z,27.7650,-82.6490,68.31,1111122 
COMPS,ioos:station:USF.COMPS:CAM:1,2014-01-01T07:00:00Z,27.7650,-82.6490,67.94,1111122 
COMPS,ioos:station:USF.COMPS:CAM:1,2014-01-01T07:06:00Z,27.7650,-82.6490,68.69,1111122 
COMPS,ioos:station:USF.COMPS:CAM:1,2014-01-01T07:12:00Z,27.7650,-82.6490,68.95,1111122 
COMPS,ioos:station:USF.COMPS:CAM:1,2014-01-01T07:18:00Z,27.7650,-82.6490,69.7,1111122 
COMPS,ioos:station:USF.COMPS:CAM:1,2014-01-01T07:24:00Z,27.7650,-82.6490,69.84,1111122 
COMPS,ioos:station:USF.COMPS:CAM:1,2014-01-01T07:30:00Z,27.7650,-82.6490,70.05,1111122 
COMPS,ioos:station:USF.COMPS:CAM:1,2014-01-01T07:36:00Z,27.7650,-82.6490,70.74,1111122 
COMPS,ioos:station:USF.COMPS:CAM:1,2014-01-01T07:42:00Z,27.7650,-82.6490,71.08,1111122 
COMPS,ioos:station:USF.COMPS:CAM:1,2014-01-01T07:48:00Z,27.7650,-82.6490,71.26,1111122 
COMPS,ioos:station:USF.COMPS:CAM:1,2014-01-01T07:54:00Z,27.7650,-82.6490,71.91,1111122 
COMPS,ioos:station:USF.COMPS:CAM:1,2014-01-01T08:00:00Z,27.7650,-82.6490,72.5,1111122 
COMPS,ioos:station:USF.COMPS:CAM:1,2014-01-01T08:06:00Z,27.7650,-82.6490,73.12,1111122 
COMPS,ioos:station:USF.COMPS:CAM:1,2014-01-01T08:12:00Z,27.7650,-82.6490,73.43,1111122 
COMPS,ioos:station:USF.COMPS:CAM:1,2014-01-01T08:18:00Z,27.7650,-82.6490,73.87,1111122 
COMPS,ioos:station:USF.COMPS:CAM:1,2014-01-01T08:24:00Z,27.7650,-82.6490,74.12,1111122 
COMPS,ioos:station:USF.COMPS:CAM:1,2014-01-01T08:30:00Z,27.7650,-82.6490,74.4,1111122 
COMPS,ioos:station:USF.COMPS:CAM:1,2014-01-01T08:36:00Z,27.7650,-82.6490,74.98,1111122 
COMPS,ioos:station:USF.COMPS:CAM:1,2014-01-01T08:42:00Z,27.7650,-82.6490,75.54,1111122 
COMPS,ioos:station:USF.COMPS:CAM:1,2014-01-01T08:48:00Z,27.7650,-82.6490,76.08,1111122 
COMPS,ioos:station:USF.COMPS:CAM:1,2014-01-01T08:54:00Z,27.7650,-82.6490,76.89,1111122 
COMPS,ioos:station:USF.COMPS:CAM:1,2014-01-01T09:00:00Z,27.7650,-82.6490,78.04,1111122 
COMPS,ioos:station:USF.COMPS:CAM:1,2014-01-01T09:06:00Z,27.7650,-82.6490,78.9,1111122 
COMPS,ioos:station:USF.COMPS:CAM:1,2014-01-01T09:12:00Z,27.7650,-82.6490,79.73,1111122 
COMPS,ioos:station:USF.COMPS:CAM:1,2014-01-01T09:18:00Z,27.7650,-82.6490,80.24,1111122 
COMPS,ioos:station:USF.COMPS:CAM:1,2014-01-01T09:24:00Z,27.7650,-82.6490,80.72,1111122 
COMPS,ioos:station:USF.COMPS:CAM:1,2014-01-01T09:30:00Z,27.7650,-82.6490,81.18,1111122 
COMPS,ioos:station:USF.COMPS:CAM:1,2014-01-01T09:36:00Z,27.7650,-82.6490,81.78,1111122 
COMPS,ioos:station:USF.COMPS:CAM:1,2014-01-01T09:42:00Z,27.7650,-82.6490,82.68,1111122 
COMPS,ioos:station:USF.COMPS:CAM:1,2014-01-01T09:48:00Z,27.7650,-82.6490,83.93,1111122 
COMPS,ioos:station:USF.COMPS:CAM:1,2014-01-01T09:54:00Z,27.7650,-82.6490,84.96,1111122 
COMPS,ioos:station:USF.COMPS:CAM:1,2014-01-01T10:00:00Z,27.7650,-82.6490,85.23,1111122 
COMPS,ioos:station:USF.COMPS:CAM:1,2014-01-01T10:06:00Z,27.7650,-82.6490,85.16,1111122 
COMPS,ioos:station:USF.COMPS:CAM:1,2014-01-01T10:12:00Z,27.7650,-82.6490,84.96,1111122 
COMPS,ioos:station:USF.COMPS:CAM:1,2014-01-01T10:18:00Z,27.7650,-82.6490,84.73,1111122 
COMPS,ioos:station:USF.COMPS:CAM:1,2014-01-01T10:24:00Z,27.7650,-82.6490,84.61,1111122 
COMPS,ioos:station:USF.COMPS:CAM:1,2014-01-01T10:30:00Z,27.7650,-82.6490,84.41,1111122 
COMPS,ioos:station:USF.COMPS:CAM:1,2014-01-01T10:36:00Z,27.7650,-82.6490,84.1,1111122 
COMPS,ioos:station:USF.COMPS:CAM:1,2014-01-01T10:42:00Z,27.7650,-82.6490,84.11,1111122 
COMPS,ioos:station:USF.COMPS:CAM:1,2014-01-01T10:48:00Z,27.7650,-82.6490,83.83,1111122 
COMPS,ioos:station:USF.COMPS:CAM:1,2014-01-01T10:54:00Z,27.7650,-82.6490,83.59,1111122 
COMPS,ioos:station:USF.COMPS:CAM:1,2014-01-01T11:00:00Z,27.7650,-82.6490,83.6,1111122 
COMPS,ioos:station:USF.COMPS:CAM:1,2014-01-01T11:06:00Z,27.7650,-82.6490,83.63,1111122 
COMPS,ioos:station:USF.COMPS:CAM:1,2014-01-01T11:12:00Z,27.7650,-82.6490,83.85,1111122 
COMPS,ioos:station:USF.COMPS:CAM:1,2014-01-01T11:18:00Z,27.7650,-82.6490,84.25,1111122 
COMPS,ioos:station:USF.COMPS:CAM:1,2014-01-01T11:24:00Z,27.7650,-82.6490,84.45,1111122 
COMPS,ioos:station:USF.COMPS:CAM:1,2014-01-01T11:30:00Z,27.7650,-82.6490,84.7,1111122 
COMPS,ioos:station:USF.COMPS:CAM:1,2014-01-01T11:36:00Z,27.7650,-82.6490,84.97,1111122 
COMPS,ioos:station:USF.COMPS:CAM:1,2014-01-01T11:42:00Z,27.7650,-82.6490,85.37,1111122 
COMPS,ioos:station:USF.COMPS:CAM:1,2014-01-01T11:48:00Z,27.7650,-82.6490,85.11,1111122 
COMPS,ioos:station:USF.COMPS:CAM:1,2014-01-01T11:54:00Z,27.7650,-82.6490,84.97,1111122 
COMPS,ioos:station:USF.COMPS:CAM:1,2014-01-01T12:00:00Z,27.7650,-82.6490,85.11,1111122 
COMPS,ioos:station:USF.COMPS:CAM:1,2014-01-01T12:06:00Z,27.7650,-82.6490,85.32,1111122 
COMPS,ioos:station:USF.COMPS:CAM:1,2014-01-01T12:12:00Z,27.7650,-82.6490,85.54,1111122 
COMPS,ioos:station:USF.COMPS:CAM:1,2014-01-01T12:18:00Z,27.7650,-82.6490,85.64,1111122 
COMPS,ioos:station:USF.COMPS:CAM:1,2014-01-01T12:24:00Z,27.7650,-82.6490,85.58,1111122 
COMPS,ioos:station:USF.COMPS:CAM:1,2014-01-01T12:30:00Z,27.7650,-82.6490,85.29,1111122 
COMPS,ioos:station:USF.COMPS:CAM:1,2014-01-01T12:36:00Z,27.7650,-82.6490,85.16,1111122 
COMPS,ioos:station:USF.COMPS:CAM:1,2014-01-01T12:42:00Z,27.7650,-82.6490,85.2,1111122 
COMPS,ioos:station:USF.COMPS:CAM:1,2014-01-01T12:48:00Z,27.7650,-82.6490,85.29,1111122 
COMPS,ioos:station:USF.COMPS:CAM:1,2014-01-01T12:54:00Z,27.7650,-82.6490,85.03,1111122 
COMPS,ioos:station:USF.COMPS:CAM:1,2014-01-01T13:00:00Z,27.7650,-82.6490,85.22,1111122 
COMPS,ioos:station:USF.COMPS:CAM:1,2014-01-01T13:06:00Z,27.7650,-82.6490,85.28,1111122 
COMPS,ioos:station:USF.COMPS:CAM:1,2014-01-01T13:12:00Z,27.7650,-82.6490,85.93,1111122 
COMPS,ioos:station:USF.COMPS:CAM:1,2014-01-01T13:18:00Z,27.7650,-82.6490,86.15,1111122 
COMPS,ioos:station:USF.COMPS:CAM:1,2014-01-01T13:24:00Z,27.7650,-82.6490,86.23,1111122 
COMPS,ioos:station:USF.COMPS:CAM:1,2014-01-01T13:30:00Z,27.7650,-82.6490,86.07,1111122 
COMPS,ioos:station:USF.COMPS:CAM:1,2014-01-01T13:36:00Z,27.7650,-82.6490,85.97,1111122 
COMPS,ioos:station:USF.COMPS:CAM:1,2014-01-01T13:42:00Z,27.7650,-82.6490,85.99,1111122 
COMPS,ioos:station:USF.COMPS:CAM:1,2014-01-01T13:48:00Z,27.7650,-82.6490,86.08,1111122 
COMPS,ioos:station:USF.COMPS:CAM:1,2014-01-01T13:54:00Z,27.7650,-82.6490,86.77,1111122 
COMPS,ioos:station:USF.COMPS:CAM:1,2014-01-01T14:00:00Z,27.7650,-82.6490,88.44,1111122 
COMPS,ioos:station:USF.COMPS:CAM:1,2014-01-01T14:06:00Z,27.7650,-82.6490,89.52,1111122 
COMPS,ioos:station:USF.COMPS:CAM:1,2014-01-01T14:12:00Z,27.7650,-82.6490,90.21,1111122 
COMPS,ioos:station:USF.COMPS:CAM:1,2014-01-01T14:18:00Z,27.7650,-82.6490,90.59,1111122 
COMPS,ioos:station:USF.COMPS:CAM:1,2014-01-01T14:24:00Z,27.7650,-82.6490,90.99,1111122 
COMPS,ioos:station:USF.COMPS:CAM:1,2014-01-01T14:30:00Z,27.7650,-82.6490,91.64,1111122 
COMPS,ioos:station:USF.COMPS:CAM:1,2014-01-01T14:36:00Z,27.7650,-82.6490,92.29,1111122 
COMPS,ioos:station:USF.COMPS:CAM:1,2014-01-01T14:42:00Z,27.7650,-82.6490,92.76,1111122 
COMPS,ioos:station:USF.COMPS:CAM:1,2014-01-01T14:48:00Z,27.7650,-82.6490,93.07,1111122 
COMPS,ioos:station:USF.COMPS:CAM:1,2014-01-01T14:54:00Z,27.7650,-82.6490,93.32,1111122 
COMPS,ioos:station:USF.COMPS:CAM:1,2014-01-01T15:00:00Z,27.7650,-82.6490,93.5,1111122 
COMPS,ioos:station:USF.COMPS:CAM:1,2014-01-01T15:06:00Z,27.7650,-82.6490,93.39,1111122 
COMPS,ioos:station:USF.COMPS:CAM:1,2014-01-01T15:12:00Z,27.7650,-82.6490,93.48,1111122 
COMPS,ioos:station:USF.COMPS:CAM:1,2014-01-01T15:18:00Z,27.7650,-82.6490,93.5,1111122 
COMPS,ioos:station:USF.COMPS:CAM:1,2014-01-01T15:24:00Z,27.7650,-82.6490,93.49,1111122 
COMPS,ioos:station:USF.COMPS:CAM:1,2014-01-01T15:30:00Z,27.7650,-82.6490,93.45,1111122 
COMPS,ioos:station:USF.COMPS:CAM:1,2014-01-01T15:36:00Z,27.7650,-82.6490,93.49,1111122 
COMPS,ioos:station:USF.COMPS:CAM:1,2014-01-01T15:42:00Z,27.7650,-82.6490,93.7,1111122 
COMPS,ioos:station:USF.COMPS:CAM:1,2014-01-01T15:48:00Z,27.7650,-82.6490,93.94,1111122 
COMPS,ioos:station:USF.COMPS:CAM:1,2014-01-01T15:54:00Z,27.7650,-82.6490,94.13,1111122 
COMPS,ioos:station:USF.COMPS:CAM:1,2014-01-01T16:00:00Z,27.7650,-82.6490,94.36,1111122 
COMPS,ioos:station:USF.COMPS:CAM:1,2014-01-01T16:06:00Z,27.7650,-82.6490,94.61,1111122 
COMPS,ioos:station:USF.COMPS:CAM:1,2014-01-01T16:12:00Z,27.7650,-82.6490,94.79,1111122 
COMPS,ioos:station:USF.COMPS:CAM:1,2014-01-01T16:18:00Z,27.7650,-82.6490,94.81,1111122 
COMPS,ioos:station:USF.COMPS:CAM:1,2014-01-01T16:24:00Z,27.7650,-82.6490,94.92,1111122 
COMPS,ioos:station:USF.COMPS:CAM:1,2014-01-01T16:30:00Z,27.7650,-82.6490,95.18,1111122 
COMPS,ioos:station:USF.COMPS:CAM:1,2014-01-01T16:36:00Z,27.7650,-82.6490,95.22,1111122 
COMPS,ioos:station:USF.COMPS:CAM:1,2014-01-01T16:42:00Z,27.7650,-82.6490,95.33,1111122 
COMPS,ioos:station:USF.COMPS:CAM:1,2014-01-01T16:48:00Z,27.7650,-82.6490,95.41,1111122 
COMPS,ioos:station:USF.COMPS:CAM:1,2014-01-01T16:54:00Z,27.7650,-82.6490,95.38,1111122 
COMPS,ioos:station:USF.COMPS:CAM:1,2014-01-01T17:00:00Z,27.7650,-82.6490,95.37,1111122 
COMPS,ioos:station:USF.COMPS:CAM:1,2014-01-01T17:06:00Z,27.7650,-82.6490,95.38,1111122 
COMPS,ioos:station:USF.COMPS:CAM:1,2014-01-01T17:12:00Z,27.7650,-82.6490,95.36,1111122 
COMPS,ioos:station:USF.COMPS:CAM:1,2014-01-01T17:18:00Z,27.7650,-82.6490,95.4,1111122 
COMPS,ioos:station:USF.COMPS:CAM:1,2014-01-01T17:24:00Z,27.7650,-82.6490,95.4,1111122 
COMPS,ioos:station:USF.COMPS:CAM:1,2014-01-01T17:30:00Z,27.7650,-82.6490,95.44,1111122 
COMPS,ioos:station:USF.COMPS:CAM:1,2014-01-01T17:36:00Z,27.7650,-82.6490,95.36,1111122 
COMPS,ioos:station:USF.COMPS:CAM:1,2014-01-01T17:42:00Z,27.7650,-82.6490,95.32,1111122 
COMPS,ioos:station:USF.COMPS:CAM:1,2014-01-01T17:48:00Z,27.7650,-82.6490,95.06,1111122 
COMPS,ioos:station:USF.COMPS:CAM:1,2014-01-01T17:54:00Z,27.7650,-82.6490,95.09,1111122 
COMPS,ioos:station:USF.COMPS:CAM:1,2014-01-01T18:00:00Z,27.7650,-82.6490,95.07,1111122 
COMPS,ioos:station:USF.COMPS:CAM:1,2014-01-01T18:06:00Z,27.7650,-82.6490,94.93,1111122 
COMPS,ioos:station:USF.COMPS:CAM:1,2014-01-01T18:12:00Z,27.7650,-82.6490,94.74,1111122 
COMPS,ioos:station:USF.COMPS:CAM:1,2014-01-01T18:18:00Z,27.7650,-82.6490,94.78,1111122 
COMPS,ioos:station:USF.COMPS:CAM:1,2014-01-01T18:24:00Z,27.7650,-82.6490,94.74,1111122 
COMPS,ioos:station:USF.COMPS:CAM:1,2014-01-01T18:30:00Z,27.7650,-82.6490,94.71,1111122 
COMPS,ioos:station:USF.COMPS:CAM:1,2014-01-01T18:36:00Z,27.7650,-82.6490,94.61,1111122 
COMPS,ioos:station:USF.COMPS:CAM:1,2014-01-01T18:42:00Z,27.7650,-82.6490,94.79,1111122 
COMPS,ioos:station:USF.COMPS:CAM:1,2014-01-01T18:48:00Z,27.7650,-82.6490,94.93,1111122 
COMPS,ioos:station:USF.COMPS:CAM:1,2014-01-01T18:54:00Z,27.7650,-82.6490,94.95,1111122 
COMPS,ioos:station:USF.COMPS:CAM:1,2014-01-01T19:00:00Z,27.7650,-82.6490,95.03,1111122 
COMPS,ioos:station:USF.COMPS:CAM:1,2014-01-01T19:06:00Z,27.7650,-82.6490,95.06,1111122 
COMPS,ioos:station:USF.COMPS:CAM:1,2014-01-01T19:12:00Z,27.7650,-82.6490,94.91,1111122 
COMPS,ioos:station:USF.COMPS:CAM:1,2014-01-01T19:18:00Z,27.7650,-82.6490,94.96,1111122 
COMPS,ioos:station:USF.COMPS:CAM:1,2014-01-01T19:24:00Z,27.7650,-82.6490,95.02,1111122 
COMPS,ioos:station:USF.COMPS:CAM:1,2014-01-01T19:30:00Z,27.7650,-82.6490,94.91,1111122 
COMPS,ioos:station:USF.COMPS:CAM:1,2014-01-01T19:36:00Z,27.7650,-82.6490,94.97,1111122 
COMPS,ioos:station:USF.COMPS:CAM:1,2014-01-01T19:42:00Z,27.7650,-82.6490,94.84,1111122 
COMPS,ioos:station:USF.COMPS:CAM:1,2014-01-01T19:48:00Z,27.7650,-82.6490,94.68,1111122 
COMPS,ioos:station:USF.COMPS:CAM:1,2014-01-01T19:54:00Z,27.7650,-82.6490,94.48,1111122 
COMPS,ioos:station:USF.COMPS:CAM:1,2014-01-01T20:00:00Z,27.7650,-82.6490,94.38,1111122 
COMPS,ioos:station:USF.COMPS:CAM:1,2014-01-01T20:06:00Z,27.7650,-82.6490,94.22,1111122 
COMPS,ioos:station:USF.COMPS:CAM:1,2014-01-01T20:12:00Z,27.7650,-82.6490,94.0,1111122 
COMPS,ioos:station:USF.COMPS:CAM:1,2014-01-01T20:18:00Z,27.7650,-82.6490,93.85,1111122 
COMPS,ioos:station:USF.COMPS:CAM:1,2014-01-01T20:24:00Z,27.7650,-82.6490,93.76,1111122 
COMPS,ioos:station:USF.COMPS:CAM:1,2014-01-01T20:30:00Z,27.7650,-82.6490,93.76,1111122 
COMPS,ioos:station:USF.COMPS:CAM:1,2014-01-01T20:36:00Z,27.7650,-82.6490,93.65,1111122 
COMPS,ioos:station:USF.COMPS:CAM:1,2014-01-01T20:42:00Z,27.7650,-82.6490,93.55,1111122 
COMPS,ioos:station:USF.COMPS:CAM:1,2014-01-01T20:48:00Z,27.7650,-82.6490,93.54,1111122 
COMPS,ioos:station:USF.COMPS:CAM:1,2014-01-01T20:54:00Z,27.7650,-82.6490,93.52,1111122 
COMPS,ioos:station:USF.COMPS:CAM:1,2014-01-01T21:00:00Z,27.7650,-82.6490,93.61,1111122 
COMPS,ioos:station:USF.COMPS:CAM:1,2014-01-01T21:06:00Z,27.7650,-82.6490,93.52,1111122 
COMPS,ioos:station:USF.COMPS:CAM:1,2014-01-01T21:12:00Z,27.7650,-82.6490,93.41,1111122 
COMPS,ioos:station:USF.COMPS:CAM:1,2014-01-01T21:18:00Z,27.7650,-82.6490,93.29,1111122 
COMPS,ioos:station:USF.COMPS:CAM:1,2014-01-01T21:24:00Z,27.7650,-82.6490,93.25,1111122 
COMPS,ioos:station:USF.COMPS:CAM:1,2014-01-01T21:30:00Z,27.7650,-82.6490,93.28,1111122 
COMPS,ioos:station:USF.COMPS:CAM:1,2014-01-01T21:36:00Z,27.7650,-82.6490,93.38,1111122 
COMPS,ioos:station:USF.COMPS:CAM:1,2014-01-01T21:42:00Z,27.7650,-82.6490,93.38,1111122 
COMPS,ioos:station:USF.COMPS:CAM:1,2014-01-01T21:48:00Z,27.7650,-82.6490,93.42,1111122 
COMPS,ioos:station:USF.COMPS:CAM:1,2014-01-01T21:54:00Z,27.7650,-82.6490,93.44,1111122 
COMPS,ioos:station:USF.COMPS:CAM:1,2014-01-01T22:00:00Z,27.7650,-82.6490,93.45,1111122 
COMPS,ioos:station:USF.COMPS:CAM:1,2014-01-01T22:06:00Z,27.7650,-82.6490,93.44,1111122 
COMPS,ioos:station:USF.COMPS:CAM:1,2014-01-01T22:12:00Z,27.7650,-82.6490,93.44,1111122 
COMPS,ioos:station:USF.COMPS:CAM:1,2014-01-01T22:18:00Z,27.7650,-82.6490,93.49,1111122 
COMPS,ioos:station:USF.COMPS:CAM:1,2014-01-01T22:24:00Z,27.7650,-82.6490,93.59,1111122 
COMPS,ioos:station:USF.COMPS:CAM:1,2014-01-01T22:30:00Z,27.7650,-82.6490,93.67,1111122 
COMPS,ioos:station:USF.COMPS:CAM:1,2014-01-01T22:36:00Z,27.7650,-82.6490,93.77,1111122 
COMPS,ioos:station:USF.COMPS:CAM:1,2014-01-01T22:42:00Z,27.7650,-82.6490,93.89,1111122 
COMPS,ioos:station:USF.COMPS:CAM:1,2014-01-01T22:48:00Z,27.7650,-82.6490,94.09,1111122 
COMPS,ioos:station:USF.COMPS:CAM:1,2014-01-01T22:54:00Z,27.7650,-82.6490,94.22,1111122 
COMPS,ioos:station:USF.COMPS:CAM:1,2014-01-01T23:00:00Z,27.7650,-82.6490,94.36,1111122 
COMPS,ioos:station:USF.COMPS:CAM:1,2014-01-01T23:06:00Z,27.7650,-82.6490,94.51,1111122 
COMPS,ioos:station:USF.COMPS:CAM:1,2014-01-01T23:12:00Z,27.7650,-82.6490,94.61,1111122 
COMPS,ioos:station:USF.COMPS:CAM:1,2014-01-01T23:18:00Z,27.7650,-82.6490,94.65,1111122 
COMPS,ioos:station:USF.COMPS:CAM:1,2014-01-01T23:24:00Z,27.7650,-82.6490,94.59,1111122 
COMPS,ioos:station:USF.COMPS:CAM:1,2014-01-01T23:30:00Z,27.7650,-82.6490,94.52,1111122 
COMPS,ioos:station:USF.COMPS:CAM:1,2014-01-01T23:36:00Z,27.7650,-82.6490,94.39,1111122 
COMPS,ioos:station:USF.COMPS:CAM:1,2014-01-01T23:42:00Z,27.7650,-82.6490,94.31,1111122 
COMPS,ioos:station:USF.COMPS:CAM:1,2014-01-01T23:48:00Z,27.7650,-82.6490,94.23,1111122 
COMPS,ioos:station:USF.COMPS:CAM:1,2014-01-01T23:54:00Z,27.7650,-82.6490,94.16,1111122 
COMPS,ioos:station:USF.COMPS:CAM:1,2014-01-02T00:00:00Z,27.7650,-82.6490,94.12,1111122 
COMPS,ioos:station:USF.COMPS:CAM:1,2014-01-02T00:06:00Z,27.7650,-82.6490,94.27,1111122 
COMPS,ioos:station:USF.COMPS:CAM:1,2014-01-02T00:12:00Z,27.7650,-82.6490,94.33,1111122 
COMPS,ioos:station:USF.COMPS:CAM:1,2014-01-02T00:18:00Z,27.7650,-82.6490,94.38,1111122 
COMPS,ioos:station:USF.COMPS:CAM:1,2014-01-02T00:24:00Z,27.7650,-82.6490,94.5,1111122 
COMPS,ioos:station:USF.COMPS:CAM:1,2014-01-02T00:30:00Z,27.7650,-82.6490,94.52,1111122 
COMPS,ioos:station:USF.COMPS:CAM:1,2014-01-02T00:36:00Z,27.7650,-82.6490,94.6,1111122 
COMPS,ioos:station:USF.COMPS:CAM:1,2014-01-02T00:42:00Z,27.7650,-82.6490,94.66,1111122 
COMPS,ioos:station:USF.COMPS:CAM:1,2014-01-02T00:48:00Z,27.7650,-82.6490,94.67,1111122 
COMPS,ioos:station:USF.COMPS:CAM:1,2014-01-02T00:54:00Z,27.7650,-82.6490,94.67,1111122 
COMPS,ioos:station:USF.COMPS:CAM:1,2014-01-02T01:00:00Z,27.7650,-82.6490,94.75,1111122 
COMPS,ioos:station:USF.COMPS:CAM:1,2014-01-02T01:06:00Z,27.7650,-82.6490,94.75,1111122 
COMPS,ioos:station:USF.COMPS:CAM:1,2014-01-02T01:12:00Z,27.7650,-82.6490,94.74,1111122 
COMPS,ioos:station:USF.COMPS:CAM:1,2014-01-02T01:18:00Z,27.7650,-82.6490,94.72,1111122 
COMPS,ioos:station:USF.COMPS:CAM:1,2014-01-02T01:24:00Z,27.7650,-82.6490,94.67,1111122 
COMPS,ioos:station:USF.COMPS:CAM:1,2014-01-02T01:30:00Z,27.7650,-82.6490,94.6,1111122 
COMPS,ioos:station:USF.COMPS:CAM:1,2014-01-02T01:36:00Z,27.7650,-82.6490,94.54,1111122 
COMPS,ioos:station:USF.COMPS:CAM:1,2014-01-02T01:42:00Z,27.7650,-82.6490,94.45,1111122 
COMPS,ioos:station:USF.COMPS:CAM:1,2014-01-02T01:48:00Z,27.7650,-82.6490,94.43,1111122 
COMPS,ioos:station:USF.COMPS:CAM:1,2014-01-02T01:54:00Z,27.7650,-82.6490,94.41,1111122 
COMPS,ioos:station:USF.COMPS:CAM:1,2014-01-02T02:00:00Z,27.7650,-82.6490,94.36,1111122 
COMPS,ioos:station:USF.COMPS:CAM:1,2014-01-02T02:06:00Z,27.7650,-82.6490,94.37,1111122 
COMPS,ioos:station:USF.COMPS:CAM:1,2014-01-02T02:12:00Z,27.7650,-82.6490,94.47,1111122 
COMPS,ioos:station:USF.COMPS:CAM:1,2014-01-02T02:18:00Z,27.7650,-82.6490,94.47,1111122 
COMPS,ioos:station:USF.COMPS:CAM:1,2014-01-02T02:24:00Z,27.7650,-82.6490,94.55,1111122 
COMPS,ioos:station:USF.COMPS:CAM:1,2014-01-02T02:30:00Z,27.7650,-82.6490,94.65,1111122 
COMPS,ioos:station:USF.COMPS:CAM:1,2014-01-02T02:36:00Z,27.7650,-82.6490,94.7,1111122 
COMPS,ioos:station:USF.COMPS:CAM:1,2014-01-02T02:42:00Z,27.7650,-82.6490,94.71,1111122 
COMPS,ioos:station:USF.COMPS:CAM:1,2014-01-02T02:48:00Z,27.7650,-82.6490,94.83,1111122 
COMPS,ioos:station:USF.COMPS:CAM:1,2014-01-02T02:54:00Z,27.7650,-82.6490,94.95,1111122 
COMPS,ioos:station:USF.COMPS:CAM:1,2014-01-02T03:00:00Z,27.7650,-82.6490,95.18,1111122 
COMPS,ioos:station:USF.COMPS:CAM:1,2014-01-02T03:06:00Z,27.7650,-82.6490,95.22,1111122 